Showing default

GEESAT 3-10, 61020

Orbit data source: Space-Track

GEESAT 3-10, 61020 is a payload satellite owned by GeeSpace (CN) in LEO that was launched on Thu, 05 Sep 2024 UTC via a CHANG ZHENG 6 launch vehicle from the Taiyaun Space Center, China (TSC). Payload-class satellites include a variety of spacecraft equipped with specific instruments for various scientific and technological missions. These include communications satellites like Starlink; space stations such as the ISS; scientific satellites like the Hubble; Earth observation satellites from companies like Planet Labs, Umbra, and HawkEye 360; GPS; miniature CubeSats for education and research; and military/defense satellites.

Loading next visibility...
Identifier
61020, 2024-159K
Orbit
LEO
Country
Flag of CNCN / PRC
Related business
Manufacturer
GWCG
Mission
Operational Commercial Navigation
Bus & Motor
GPS100, Unknown motor
Mass
130 kg wet, 130 kg dry
Launch date (UTC)
2024-09-05 (2 years ago)
Launch vehicle
CHANG ZHENG 6
Launch site
Taiyaun Space Center, China (TSC)
Object type
Payload
Rocket body
Debris
Shape & HBR
Box + 2 Pan, 1.0 m
Radar Cross Section
0.833 m², Large (>1 m²)

Expand to show TLE details & history
Last TLE update: 14 hours ago

TLE from 14 hours ago
0 GEESAT 3-10
1 61020U 24159K   26171.32696765  .00001462  00000-0  19971-3 0  9994
2 61020  50.0005  68.6669 0003751 117.4543 242.6777 14.84211637 96976
Epoch: 2026-06-20T07:50Z
TLE epoch observation values (Epoch: 2026-06-20T07:50:50.004Z)
Latitude
-0.00007°
Longitude
42.41531°
Altitude
617.811 km
Speed
7.551 km/s
True Right ascension
04h 34m 40s
True Declination
0° 00' 00"
Sunlit
Object was in daylight at epoch
Visualization orbit readout
Latitude
Unknown
Longitude
Unknown
Altitude
Unknown
Speed
Unknown
Apparent Right ascension
Unknown
Apparent Declination
Unknown
Sunlit
N/A
Visualization observer readout
Local Sidereal Time
08:33:22
Azimuth
Unknown
Elevation
Unknown
Doppler factor
Unknown
Orbital elements
Apogee altitude
619.444 km
Perigee altitude
614.196 km
Semi-major axis
6,994.957 km
Eccentricity
0.00038
Inclination
50.0005°
RAAN
68.6669°
Arg. of periapsis
117.4543°
True anomaly
242.63952°
Mean anomaly
242.6777°
Eccentric anomaly
242.65861°
Mean motion
3.70993 °/min
Orbital period
97.04 mins
BSTAR
0.00019971
Loading maneuver chart data...
Computing Atmospheric mass density...
Loading historical data...
Loading historical data...
Loading historical data...
Loading historical data...
Loading historical data...
Loading historical data...
Loading historical data...

Documentation

Showing up to 5 results
|